Regional Weather Roundup
Issued by NWS Columbia, SC

Home | Current Version | Previous Version | Text Only | Print | Product List | Glossary On
Versions: 1 2 3 4 5 6 7 8 9 10 11 12 13 14 15 16 17 18 19 20 21 22 23 24 25 26 27 28 29 30 31 32 33 34 35 36 37 38 39 40 41 42 43 44 45 46 47 48 49 50
000
ASUS42 KCAE 270410
RWRCAE
REGIONAL WEATHER ROUNDUP
NATIONAL WEATHER SERVICE COLUMBIA SC
1200 AM EDT SAT MAY 27 2017

NOTE: "FAIR" INDICATES FEW OR NO CLOUDS BELOW 12,000 FEET WITH NO
SIGNIFICANT WEATHER AND/OR OBSTRUCTIONS TO VISIBILITY.

NOT ALL STATIONS ARE QUALITY CONTROLLED BY THE NATIONAL
WEATHER SERVICE. USE DATA WITH CAUTION...ESPECIALLY
DEWPOINT OBSERVATIONS.

SCZ001>056-GAZ040-063>065-077-270500-
...UPSTATE SOUTH CAROLINA...

CITY           SKY/WX    TMP DP  RH WIND       PRES   REMARKS
ANDERSON       CLEAR     67  61  81 CALM      30.00R
SPARTANBURG    CLEAR     66  59  77 CALM      30.00R
CLEMSON        CLEAR     71  60  68 SW5       30.01R
GREENVILLE     CLEAR     71  60  68 SW3       30.01R
GREENWOOD      CLEAR     68  59  73 SW3       30.01S
GREER          CLEAR     66  60  81 CALM      29.99R
ROCK HILL      CLEAR     64  58  80 SW6       30.00R
CHESTER        CLEAR     64  55  72 SW3       30.00S
LAURENS        CLEAR     68  61  77 S3        30.00S


...CENTRAL SOUTH CAROLINA...

CITY           SKY/WX    TMP DP  RH WIND       PRES   REMARKS
COLUMBIA APT   CLEAR     67  60  78 CALM      29.99R
COLUMBIA OWENS CLEAR     67  60  78 CALM      30.00S
ORANGEBURG     CLEAR     65  60  84 CALM      30.01R
NEWBERRY       CLEAR     64  61  88 SW5       30.03R
AIKEN          FAIR      66  59  77 SW3       30.04S
BARNWELL       FAIR      68  63  83 CALM      30.01S
MANNING        FAIR      63  61  94 NW22      30.00S
CAMDEN         FAIR      68  59  73 CALM      30.00S
LANCASTER      CLEAR     64  63  94 CALM      30.00R
WINNSBORO      CLEAR     70  57  64 SW5       30.00R


...EASTERN AND COASTAL SOUTH CAROLINA...

CITY           SKY/WX    TMP DP  RH WIND       PRES   REMARKS
N MYRTLE BCH   CLEAR     67  60  78 CALM      29.99R
CONWAY         FAIR      61  59  94 CALM      30.00R
MARION         FAIR      63  59  88 CALM      29.99R
HARTSVILLE     FAIR      61  55  82 CALM      29.99S
FLORENCE       CLEAR     63  59  87 SW3       29.99R
DARLINGTON     CLEAR     66  61  84 SW5       29.99R
CHARLESTON APT CLEAR     70  56  61 SW6       30.01R
MOUNT PLEASANT FAIR      66  64  94 CALM      30.01S
WALTERBORO     CLEAR     63  59  88 CALM      30.02S
BEAUFORT       CLEAR     67  61  81 SW5       30.02R


...EASTERN GEORGIA...

CITY           SKY/WX    TMP DP  RH WIND       PRES   REMARKS
AUGUSTA BUSH F CLEAR     66  62  87 CALM      30.00S
AUGUSTA DANIEL CLEAR     74  58  57 SW5       30.01S
THOMSON        CLEAR     66  62  86 W3        30.06R FOG
WASHINGTON     FAIR      70  63  78 SW3       30.01S
CLAXTON        FAIR     N/A N/A N/A CALM      30.04R
SYLVANIA       CLEAR     66  64  93 CALM      30.03S
STATESBORO     CLEAR     65  65 100 CALM      30.03R
SAVANNAH       CLEAR     69  58  67 W3        30.03R


...SOUTHERN NORTH CAROLINA...

CITY           SKY/WX    TMP DP  RH WIND       PRES   REMARKS
CHARLOTTE      PTCLDY    68  57  68 CALM      29.99R
MONROE         CLEAR     64  56  75 SW6       29.98S
WADESBORO      CLEAR     65  58  80 CALM      29.98S
ROCKINGHAM     CLEAR     68  58  71 SW5       29.99R
RUTHERFORDTON  CLEAR     63  62  98 CALM      30.00S
ASHEVILLE      CLEAR     60  55  83 CALM      30.06R

$$



USA.gov is the U.S. government's official web portal to all federal, state and local government web resources and services.